Weather History for Orangeburg, SC

Change the Weather History Date:

Monday, October 1, 2012

  Actual Average Record
Temperature  
Mean Temperature 78 °F 70 °F  
Max Temperature 86 °F 81 °F 94 °F (1986)
Min Temperature 69 °F 59 °F 40 °F (1967)
Degree Days  
Heating Degree Days 0 1  
Month to date heating degree days 0 1  
Since 1 July heating degree days 0 5  
Cooling Degree Days 13 6  
Month to date cooling degree days 13 6  
Year to date cooling degree days 2222 2000  
Growing Degree Days 26 (Base 50)    
Moisture  
Dew Point 71 °F    
Average Humidity 90    
Maximum Humidity 100    
Minimum Humidity 69    
Precipitation  
Precipitation 0.06 in 0.15 in 3.63 in (1989)
Month to date precipitation 0.06 0.15  
Year to date precipitation 35.09 37.25  
Sea Level Pressure  
Sea Level Pressure 29.80 in    
Wind  
Wind Speed 5 mph (East)    
Max Wind Speed 16 mph    
Max Gust Speed 24 mph    
Visibility 4 miles    
Events Rain    
T = Trace of Precipitation, MM = Missing Value Source: NWS Daily Summary

Daily Weather History Graph

Daily Weather History Graph

Search for Another Location

Airport:

Trip Planner

Search our weather history database for the weather conditions in past years. The results will help you decide how hot, cold, wet, or windy it might be!

Date:

Astronomy

Oct. 01, 2012 Rise Set
Actual Time 7:18 AM EDT 7:07 PM EDT
Civil Twilight 6:53 AM EDT 7:31 PM EDT
Nautical Twilight 6:24 AM EDT 8:00 PM EDT
Astronomical Twilight 5:55 AM EDT 8:29 PM EDT
Moon 7:51 PM EDT (10/1) 8:39 AM EDT (10/1)
Length of Visible Light 12h 38m
Length of Day
11h 49m
Full, 98% of the Moon is Illuminated
Oct 1
Full
Oct 8
Last Quarter
Oct 15
New
Oct 21
First Quarter
Oct 29
Full

Hourly Weather History & Observations

Time (EDT) Temp. Heat Index Dew Point Humidity Pressure Visibility Wind Dir Wind Speed Gust Speed Precip Events Conditions
12:53 AM 69.1 °F - 66.9 °F 93% 29.85 in 9.0 mi East 3.5 mph - 0.00 in   Overcast
1:53 AM 69.1 °F - 68.0 °F 96% 29.83 in 3.0 mi ENE 3.5 mph - 0.01 in Rain Light Rain
2:18 AM 69.8 °F - 68.0 °F 94% 29.82 in 2.0 mi East 3.5 mph - 0.00 in   Overcast
2:25 AM 69.8 °F - 68.0 °F 94% 29.82 in 1.5 mi East 3.5 mph - 0.00 in   Overcast
2:53 AM 69.1 °F - 68.0 °F 96% 29.80 in 1.8 mi ENE 4.6 mph - 0.00 in Rain Light Rain
3:07 AM 69.8 °F - 68.0 °F 94% 29.80 in 1.2 mi East 5.8 mph - 0.00 in   Overcast
3:27 AM 69.8 °F - 68.0 °F 94% 29.80 in 0.8 mi East 3.5 mph - 0.00 in   Mist
3:53 AM 69.1 °F - 68.0 °F 96% 29.79 in 0.8 mi East 3.5 mph - 0.00 in   Mist
4:13 AM 69.8 °F - 68.0 °F 94% 29.79 in 1.2 mi East 3.5 mph - N/A   Overcast
4:25 AM 69.8 °F - 68.0 °F 94% 29.79 in 2.0 mi Calm Calm - N/A   Overcast
4:43 AM 69.8 °F - 68.0 °F 94% 29.79 in 3.0 mi East 5.8 mph - 0.00 in Rain Light Rain
4:53 AM 70.0 °F - 68.0 °F 93% 29.79 in 4.0 mi East 3.5 mph - 0.00 in Rain Light Rain
5:53 AM 70.0 °F - 69.1 °F 97% 29.80 in 3.0 mi ESE 4.6 mph - 0.00 in   Overcast
6:02 AM 69.8 °F - 69.8 °F 100% 29.80 in 2.5 mi ESE 5.8 mph - N/A   Overcast
6:53 AM 70.0 °F - 69.1 °F 97% 29.80 in 2.0 mi East 3.5 mph - N/A   Overcast
7:23 AM 71.6 °F - 69.8 °F 94% 29.81 in 1.5 mi Variable 3.5 mph - N/A   Overcast
7:49 AM 71.6 °F - 69.8 °F 94% 29.81 in 0.8 mi Calm Calm - N/A   Overcast
7:53 AM 71.1 °F - 69.1 °F 93% 29.81 in 0.8 mi East 3.5 mph - N/A   Overcast
8:48 AM 71.6 °F - 69.8 °F 94% 29.82 in - North - - N/A   Unknown
8:53 AM 71.1 °F - 70.0 °F 96% 29.82 in - East 4.6 mph - N/A   Unknown
9:02 AM 71.6 °F - 69.8 °F 94% 29.83 in 0.8 mi East 4.6 mph - N/A   Mist
9:13 AM 71.6 °F - 69.8 °F 94% 29.83 in 1.0 mi East 3.5 mph - N/A   Mist
9:25 AM 71.6 °F - 69.8 °F 94% 29.83 in 1.0 mi ENE 4.6 mph - N/A   Overcast
9:39 AM 71.6 °F - 69.8 °F 94% 29.83 in 1.5 mi ENE 3.5 mph - N/A   Mist
9:48 AM 71.6 °F - 71.6 °F 100% 29.83 in 1.8 mi ENE 5.8 mph - N/A   Mist
9:53 AM 72.0 °F - 71.1 °F 97% 29.83 in 1.8 mi North - - N/A   Mist
10:23 AM 73.4 °F - 71.6 °F 94% 29.83 in 3.0 mi East 5.8 mph - N/A   Overcast
10:53 AM 73.9 °F - 72.0 °F 93% 29.83 in 4.0 mi East 4.6 mph - N/A   Overcast
11:18 AM 75.2 °F - 71.6 °F 89% 29.83 in 2.5 mi NE 4.6 mph - N/A   Overcast
11:53 AM 75.0 °F - 72.0 °F 90% 29.82 in 3.0 mi NE 5.8 mph - N/A   Overcast
12:11 PM 77.0 °F - 71.6 °F 83% 29.82 in 4.0 mi Variable 4.6 mph - N/A   Haze
12:53 PM 80.1 °F 84.2 °F 73.0 °F 79% 29.81 in 5.0 mi ENE 8.1 mph - N/A   Haze
1:13 PM 80.6 °F 85.4 °F 73.4 °F 79% 29.81 in 6.0 mi ENE 6.9 mph - N/A   Haze
1:49 PM 82.4 °F 88.2 °F 73.4 °F 74% 29.80 in 7.0 mi NE 5.8 mph - N/A   Mostly Cloudy
2:03 PM 82.4 °F 88.2 °F 73.4 °F 74% 29.79 in 7.0 mi ENE 5.8 mph - N/A   Mostly Cloudy
2:53 PM 84.0 °F 91.2 °F 73.9 °F 72% 29.76 in 8.0 mi ENE 6.9 mph - N/A   Scattered Clouds
3:53 PM 84.0 °F 90.2 °F 73.0 °F 69% 29.75 in 10.0 mi ESE 5.8 mph - N/A   Mostly Cloudy
4:53 PM 82.9 °F 88.0 °F 72.0 °F 69% 29.75 in 10.0 mi ESE 6.9 mph - N/A   Mostly Cloudy
6:53 PM 77.0 °F - 73.9 °F 90% 29.75 in 4.0 mi ENE 3.5 mph - N/A   Clear
7:53 PM 75.9 °F - 73.9 °F 94% 29.76 in 4.0 mi Calm Calm - N/A   Clear
8:53 PM 77.0 °F - 73.0 °F 88% 29.77 in 10.0 mi SE 5.8 mph - N/A   Clear
9:53 PM 75.9 °F - 73.0 °F 91% 29.78 in 10.0 mi SE 6.9 mph - N/A   Clear
10:53 PM 75.9 °F - 73.9 °F 94% 29.78 in 10.0 mi SE 4.6 mph - N/A   Clear
11:53 PM 77.0 °F - 73.9 °F 90% 29.78 in 10.0 mi SE 5.8 mph - N/A   Clear